User: anonymous   Login
Location: Unspecified
(0.0000°N, 0.0000°E)
Time: 10:34:49
(UTC+00:00)
Language:

Meteor 1-24 - Orbit

View from above orbital plane
View from above orbital plane
View from above satellite
View from above satellite

Ground track
Ground track

The orbit data is extracted from the following two-line orbital elements,

1 08799U 76032A   18174.11747341 -.00000011  00000-0 -12977-4 0  9994
2 08799  81.2554 190.0005 0034100 210.3039 149.6162 14.11467182172858
Epoch (UTC): 23 June 2018 02:49:09
Eccentricity: 0.0034100
inclination: 81.2554°
perigee height: 829 km
apogee height: 879 km
right ascension of ascending node: 190.0005°
argument of perigee: 210.3039°
revolutions per day: 14.11467182
mean anomaly at epoch: 149.6162°
orbit number at epoch: 17285

The dashed part of the orbit path shows where the satellite is in the earth's shadow,  

DLR